Weather History for Green Bay, WI

Change the Weather History Date:

Friday, January 25, 2013

  Actual Average Record
Temperature  
Mean Temperature 15 °F 16 °F  
Max Temperature 20 °F 24 °F 55 °F (1944)
Min Temperature 10 °F 9 °F -27 °F (1904)
Degree Days  
Heating Degree Days 50 48  
Month to date heating degree days 1171 1214  
Since 1 July heating degree days 3922 4304  
Cooling Degree Days 0 0  
Month to date cooling degree days 0 0  
Year to date cooling degree days 0 0  
Moisture  
Dew Point 11 °F    
Average Humidity 83    
Maximum Humidity 92    
Minimum Humidity 73    
Precipitation  
Precipitation 0.09 in 0.03 in 0.94 in (1950)
Month to date precipitation 0.66 0.93  
Year to date precipitation 0.66 0.93  
Snow  
Snow 1.90 in 0.50 in 5.40 in (1971)
Month to date snowfall 3.3 10.5  
Since 1 July snowfall 27.6 27.8  
Snow Depth 2.00 in    
Sea Level Pressure  
Sea Level Pressure 30.08 in    
Wind  
Wind Speed 7 mph (SW)    
Max Wind Speed 16 mph    
Max Gust Speed 21 mph    
Visibility 4 miles    
Events Snow    
T = Trace of Precipitation, MM = Missing Value Source: NWS Daily Summary

Daily Weather History Graph

Daily Weather History Graph

Search for Another Location

Airport:

Trip Planner

Search our weather history database for the weather conditions in past years. The results will help you decide how hot, cold, wet, or windy it might be!

Date:

Astronomy

Jan. 25, 2013 Rise Set
Actual Time 7:17 AM CST 4:52 PM CST
Civil Twilight 6:46 AM CST 5:23 PM CST
Nautical Twilight 6:11 AM CST 5:59 PM CST
Astronomical Twilight 5:36 AM CST 6:33 PM CST
Moon 3:49 PM CST (1/25) 5:57 AM CST (1/25)
Length of Visible Light 10h 37m
Length of Day
9h 34m
Waxing Gibbous, 98% of the Moon is Illuminated
Jan 25
Waxing Gibbous
Jan 26
Full
Feb 3
Last Quarter
Feb 10
New
Feb 17
First Quarter

Hourly Weather History & Observations

Time (CST) Temp. Windchill Dew Point Humidity Pressure Visibility Wind Dir Wind Speed Gust Speed Precip Events Conditions
12:53 AM 12.9 °F 6.9 °F 9.0 °F 84% 30.37 in 1.0 mi South 3.5 mph - 0.02 in Snow Light Snow
1:07 AM 12.9 °F - 9.0 °F 84% 30.30 in 0.8 mi Calm Calm - 0.01 in Snow Light Snow
1:30 AM 12.9 °F - 9.0 °F 84% 30.29 in 1.5 mi Calm Calm - 0.03 in Snow Light Snow
1:40 AM 12.9 °F - 9.0 °F 84% 30.28 in 2.5 mi Calm Calm - 0.03 in Snow Light Snow
1:50 AM 12.2 °F - 8.6 °F 85% 30.28 in 3.0 mi Calm Calm - 0.03 in Snow Light Snow
1:53 AM 12.9 °F - 9.0 °F 84% 30.33 in 4.0 mi Calm Calm - 0.03 in Snow Light Snow
2:53 AM 12.9 °F - 10.0 °F 88% 30.27 in 10.0 mi Calm Calm - 0.00 in   Overcast
3:53 AM 12.9 °F - 10.0 °F 88% 30.22 in 9.0 mi Calm Calm - N/A   Overcast
4:53 AM 14.0 °F 8.2 °F 10.9 °F 88% 30.18 in 8.0 mi SE 3.5 mph - N/A   Overcast
5:51 AM 17.6 °F 6.4 °F 10.4 °F 73% 30.11 in 1.8 mi SSW 9.2 mph - 0.00 in Snow Light Snow
5:52 AM 17.1 °F 6.6 °F 10.0 °F 74% 30.15 in 1.8 mi SSW 8.1 mph - 0.00 in Snow Light Snow
6:07 AM 17.1 °F 5.0 °F 10.9 °F 77% 30.10 in 2.0 mi South 10.4 mph - 0.00 in Snow Light Snow
6:37 AM 16.0 °F 4.4 °F 12.0 °F 84% 30.08 in 1.8 mi South 9.2 mph - 0.01 in Snow Light Snow
6:45 AM 16.0 °F 4.4 °F 12.0 °F 84% 30.07 in 2.0 mi South 9.2 mph - 0.01 in Snow Light Snow
6:53 AM 16.0 °F 4.4 °F 12.0 °F 84% 30.11 in 3.0 mi South 9.2 mph - 0.01 in Snow Light Snow
7:53 AM 16.0 °F 4.4 °F 12.0 °F 84% 30.09 in 3.0 mi South 9.2 mph - 0.00 in Snow Light Snow
8:26 AM 17.1 °F 4.3 °F 12.0 °F 81% 30.02 in 2.5 mi South 11.5 mph - 0.00 in Snow Light Snow
8:53 AM 17.1 °F 5.8 °F 12.0 °F 81% 30.06 in 2.5 mi South 9.2 mph - 0.00 in Snow Light Snow
9:17 AM 17.1 °F 4.3 °F 12.0 °F 81% 30.00 in 1.2 mi South 11.5 mph - 0.00 in Snow Light Snow
9:33 AM 18.0 °F 4.8 °F 12.9 °F 81% 30.00 in 2.5 mi SSW 12.7 mph - 0.00 in Snow Light Snow
9:53 AM 18.0 °F 4.8 °F 12.0 °F 78% 30.04 in 2.5 mi South 12.7 mph - 0.01 in Snow Light Snow
10:37 AM 18.0 °F 6.1 °F 12.9 °F 81% 29.98 in 3.0 mi SSW 10.4 mph 19.6 mph 0.00 in Snow Light Snow
10:53 AM 18.0 °F 5.4 °F 12.9 °F 81% 30.01 in 2.5 mi SSW 11.5 mph - 0.00 in Snow Light Snow
11:21 AM 19.0 °F 7.5 °F 12.9 °F 77% 29.95 in 1.5 mi SSW 10.4 mph - 0.00 in Snow Light Snow
11:53 AM 19.0 °F 9.0 °F 14.0 °F 81% 29.97 in 1.8 mi SSW 8.1 mph - 0.00 in Snow Light Snow
12:16 PM 19.0 °F 8.2 °F 14.0 °F 81% 29.92 in 1.0 mi SSW 9.2 mph - 0.00 in Snow Light Snow
12:53 PM 19.0 °F 8.2 °F 14.0 °F 81% 29.95 in 1.8 mi SW 9.2 mph - 0.01 in Snow Light Snow
1:02 PM 19.9 °F 10.1 °F 14.0 °F 78% 29.91 in 2.0 mi SW 8.1 mph - 0.00 in Snow Light Snow
1:43 PM 19.9 °F 12.1 °F 14.0 °F 78% 29.91 in 3.0 mi WSW 5.8 mph - 0.00 in Snow Light Snow
1:53 PM 19.9 °F 8.6 °F 14.0 °F 78% 29.95 in 4.0 mi WSW 10.4 mph - 0.00 in Snow Light Snow
2:37 PM 19.9 °F 11.1 °F 14.0 °F 78% 29.92 in 2.0 mi WSW 6.9 mph - 0.00 in Snow Light Snow
2:53 PM 19.9 °F 11.1 °F 14.0 °F 78% 29.97 in 3.0 mi WSW 6.9 mph - 0.00 in Snow Light Snow
3:53 PM 19.9 °F 13.4 °F 14.0 °F 78% 29.99 in 5.0 mi WSW 4.6 mph - 0.00 in   Haze
4:53 PM 19.0 °F 11.1 °F 14.0 °F 81% 30.01 in 5.0 mi West 5.8 mph - 0.00 in   Haze
5:53 PM 19.9 °F 11.1 °F 15.1 °F 81% 30.03 in 8.0 mi WNW 6.9 mph - 0.00 in   Overcast
6:53 PM 15.1 °F 5.2 °F 10.0 °F 80% 30.06 in 9.0 mi NW 6.9 mph - N/A   Scattered Clouds
7:53 PM 18.0 °F 7.7 °F 12.0 °F 78% 30.08 in 9.0 mi NW 8.1 mph - N/A   Overcast
8:53 PM 15.1 °F 4.2 °F 9.0 °F 77% 30.10 in 10.0 mi NW 8.1 mph - N/A   Mostly Cloudy
9:53 PM 14.0 °F 2.9 °F 7.0 °F 74% 30.13 in 10.0 mi NW 8.1 mph - N/A   Clear
10:53 PM 10.9 °F -0.8 °F 5.0 °F 77% 30.15 in 10.0 mi West 8.1 mph - N/A   Clear
11:53 PM 10.9 °F -2.6 °F 5.0 °F 77% 30.18 in 10.0 mi WNW 10.4 mph - N/A   Clear